sat.trackr.live / text

‹ back to catalog

STARLINK-30885

NORAD 58361 · 2023-177L

PAYLOAD ACTIVE UNKNOWN

§ Identity

Operator
Country
US
Launch date
2023-11-18
Launch site
AFETR
Launch vehicle
Mass (kg)
RCS (m²)

Purposes: comms

External: N2YO · Heavens-Above · Gunter

§ Orbital elements

Epoch: 2026-09-20T21:37:07.463712Z

Period
94.27 min
Inclination
43.0053°
Eccentricity
0.0001543
Mean motion
15.27581900 rev/d
Perigee alt
482.0 km
Apogee alt
484.1 km
Semi-major
6,861.2 km
B*
-1.1772e-5
RAAN
328.0557°
Arg perigee
260.9048°
Mean anomaly
99.1629°
Rev number
15,809

§ Raw data

STARLINK-308851 58361U 23177L   26263.90078083 -.00000586  00000+0 -11772-4 0  99992 58361  43.0053 328.0557 0001543 260.9048  99.1629 15.27581900158099

JSON: /api/v1/satellites/58361 · /tle

For live sub-satellite position, see the globe view (requires WebGL).

§ Visibility from observer

Set your observer location to see the next 7 days of passes ≥ 10°. The values pass through the URL so the page stays shareable.

No JS? Fill the form by hand. The geolocation button needs JavaScript.